QPF
0.00 0.00 0.00 0.00 0.00 0.00 0.00 0.00 0.00 0.00 0.00 0.00 0.00 0.00 0.00 0.00 0.00 0.00 0.00 0.00 0.00 0.00 0.00 0.00 0.00 0.00 0.00 0.00 0.00 0.00 0.00 0.00 0.00 0.00 0.00 0.00 0.00 0.00 0.00 0.00 0.00 0.00 0.00
0.00 0.00 0.00 0.00 0.00 0.00 0.00 0.00 0.00 0.00 0.00 0.00 0.00 0.00 0.00 0.00 0.00 0.00 0.00 0.00 0.00 0.00 0.00 0.00 0.00 0.00 0.00 0.00 0.00 0.00 0.00 0.00 0.00 0.00 0.00 0.00 0.00 0.00 0.00 0.00 0.00 0.00 0.00
0.00 0.00 0.00 0.00 0.00 0.00 0.00 0.00 0.00 0.00 0.00 0.00 0.00 0.00 0.00 0.00 0.00 0.00 0.00 0.00 0.00 0.00 0.00 0.00 0.00 0.00 0.00 0.00 0.00 0.00 0.00 0.00 0.00 0.00 0.00 0.00 0.00 0.00 0.00 0.00 0.00 0.00 0.00
0.00 0.00 0.00 0.00 0.00 0.00 0.00 0.00 0.00 0.00 0.00 0.00 0.00 0.00 0.00 0.00 0.00 0.00 0.00 0.00 0.00 0.00 0.00 0.00 0.00 0.00 0.00 0.00 0.00 0.00 0.00 0.00 0.00 0.00 0.00 0.00 0.00 0.00 0.00 0.00 0.00 0.00 0.00
0.00 0.00 0.00 0.00 0.00 0.00 0.00 0.00 0.00 0.00 0.00 0.00 0.00 0.00 0.00 0.00 0.00 0.00 0.00 0.00 0.00 0.00 0.00 0.00 0.00 0.00 0.00 0.00 0.00 0.00 0.00 0.00 0.00 0.00 0.00 0.00 0.00 0.00 0.00 0.00 0.00 0.00 0.00
0.00 0.00 0.00 0.00 0.00 0.00 0.00 0.00 0.00 0.00 0.00 0.00 0.00 0.00 0.00 0.00 0.00 0.00 0.00 0.00 0.00 0.00 0.00 0.00 0.00 0.00 0.00 0.00 0.00 0.00 0.00 0.00 0.00 0.00 0.00 0.00 0.00 0.00 0.00 0.00 0.00 0.00 0.00
0.00 0.00 0.00 0.01 0.00 0.01 0.00 0.00 0.00 0.00 0.00 0.00 0.00 0.00 0.00 0.00 0.00 0.00 0.00 0.00 0.00 0.00 0.00 0.00 0.00 0.00 0.00 0.00 0.00 0.00 0.00 0.00 0.00 0.00 0.00 0.00 0.00 0.00 0.00 0.00 0.00 0.00 0.00
0.01 0.03 0.02 0.01 0.02 0.02 0.00 0.00 0.00 0.00 0.00 0.00 0.00 0.00 0.00 0.00 0.00 0.00 0.00 0.00 0.00 0.00 0.00 0.00 0.00 0.00 0.00 0.00 0.00 0.00 0.00 0.00 0.00 0.00 0.00 0.00 0.00 0.00 0.00 0.00 0.00 0.00 0.00
0.01 0.02 0.05 0.05 0.05 0.01 0.00 0.00 0.00 0.00 0.00 0.00 0.00 0.00 0.00 0.00 0.00 0.00 0.00 0.00 0.00 0.00 0.00 0.00 0.00 0.00 0.00 0.00 0.00 0.00 0.00 0.00 0.00 0.00 0.00 0.00 0.00 0.00 0.00 0.00 0.00 0.00 0.00
0.00 0.00 0.00 0.00 0.02 0.00 0.00 0.00 0.00 0.00 0.00 0.00 0.01 0.01 0.00 0.00 0.00 0.00 0.00 0.00 0.00 0.00 0.00 0.00 0.00 0.00 0.00 0.00 0.00 0.00 0.00 0.00 0.00 0.00 0.00 0.00 0.00 0.00 0.00 0.00 0.00 0.00 0.00
0.00 0.00 0.00 0.00 0.00 0.00 0.00 0.00 0.00 0.00 0.01 0.01 0.01 0.01 0.00 0.00 0.00 0.00 0.00 0.00 0.00 0.00 0.00 0.00 0.00 0.00 0.00 0.00 0.00 0.00 0.00 0.00 0.00 0.00 0.00 0.00 0.00 0.00 0.00 0.00 0.00 0.00 0.00
0.00 0.00 0.00 0.00 0.00 0.00 0.00 0.00 0.00 0.02 0.09 0.07 0.02 0.02 0.01 0.01 0.01 0.01 0.00 0.00 0.00 0.00 0.00 0.00 0.00 0.00 0.00 0.00 0.00 0.00 0.00 0.00 0.00 0.00 0.00 0.00 0.00 0.00 0.00 0.00 0.00 0.00 0.00
0.00 0.00 0.00 0.00 0.00 0.00 0.00 0.00 0.04 0.09 0.12 0.09 0.05 0.04 0.05 0.04 0.03 0.01 0.01 0.00 0.00 0.00 0.00 0.00 0.00 0.00 0.00 0.00 0.00 0.00 0.00 0.00 0.00 0.00 0.00 0.00 0.00 0.00 0.00 0.00 0.00 0.00 0.00
0.00 0.00 0.00 0.00 0.00 0.00 0.00 0.01 0.06 0.09 0.06 0.04 0.03 0.03 0.03 0.02 0.02 0.01 0.00 0.00 0.00 0.00 0.00 0.00 0.00 0.00 0.00 0.00 0.00 0.00 0.00 0.00 0.00 0.00 0.00 0.00 0.00 0.00 0.01 0.01 0.00 0.00 0.00
0.00 0.00 0.00 0.00 0.00 0.00 0.00 0.01 0.03 0.03 0.02 0.01 0.00 0.01 0.02 0.02 0.03 0.01 0.00 0.00 0.00 0.00 0.00 0.00 0.00 0.00 0.00 0.00 0.00 0.00 0.00 0.00 0.00 0.00 0.00 0.00 0.00 0.00 0.00 0.01 0.01 0.01 0.00
0.00 0.01 0.02 0.02 0.01 0.00 0.00 0.01 0.01 0.02 0.02 0.00 0.00 0.01 0.02 0.02 0.01 0.00 0.00 0.00 0.00 0.00 0.00 0.00 0.00 0.00 0.00 0.00 0.00 0.00 0.00 0.00 0.00 0.00 0.00 0.00 0.00 0.00 0.00 0.00 0.01 0.01 0.01
0.00 0.02 0.04 0.07 0.07 0.07 0.06 0.04 0.05 0.06 0.05 0.04 0.02 0.02 0.01 0.01 0.00 0.00 0.00 0.00 0.00 0.00 0.00 0.00 0.00 0.00 0.00 0.00 0.00 0.00 0.00 0.00 0.00 0.00 0.00 0.00 0.00 0.00 0.00 0.00 0.00 0.00 0.00
0.00 0.01 0.01 0.02 0.03 0.04 0.09 0.12 0.08 0.06 0.03 0.02 0.03 0.02 0.01 0.00 0.00 0.00 0.00 0.00 0.00 0.00 0.00 0.00 0.00 0.00 0.00 0.00 0.00 0.00 0.00 0.00 0.00 0.00 0.00 0.00 0.00 0.00 0.00 0.00 0.00 0.00 0.00
0.01 0.07 0.08 0.05 0.03 0.02 0.01 0.05 0.04 0.03 0.01 0.00 0.00 0.00 0.00 0.00 0.00 0.00 0.00 0.00 0.00 0.00 0.00 0.00 0.00 0.00 0.00 0.00 0.00 0.00 0.00 0.00 0.00 0.00 0.00 0.00 0.00 0.00 0.00 0.00 0.00 0.00 0.00
0.01 0.06 0.05 0.04 0.03 0.02 0.02 0.02 0.02 0.00 0.00 0.00 0.00 0.00 0.00 0.00 0.00 0.00 0.00 0.00 0.00 0.00 0.00 0.00 0.00 0.00 0.00 0.00 0.00 0.00 0.00 0.00 0.00 0.00 0.00 0.00 0.00 0.00 0.00 0.00 0.00 0.00 0.00
0.02 0.05 0.05 0.03 0.02 0.01 0.03 0.03 0.02 0.01 0.00 0.00 0.00 0.00 0.00 0.00 0.00 0.00 0.00 0.00 0.00 0.00 0.00 0.00 0.00 0.00 0.00 0.00 0.00 0.00 0.00 0.00 0.00 0.00 0.00 0.00 0.00 0.00 0.00 0.00 0.00 0.00 0.00
0.09 0.13 0.13 0.10 0.05 0.06 0.08 0.05 0.03 0.01 0.00 0.00 0.00 0.00 0.00 0.00 0.00 0.00 0.00 0.00 0.00 0.00 0.00 0.00 0.00 0.00 0.00 0.00 0.00 0.00 0.00 0.00 0.00 0.00 0.00 0.00 0.00 0.00 0.00 0.00 0.00 0.00 0.00
0.11 0.11 0.11 0.09 0.04 0.03 0.05 0.03 0.01 0.00 0.00 0.00 0.00 0.00 0.00 0.00 0.00 0.00 0.00 0.00 0.00 0.00 0.00 0.00 0.00 0.00 0.00 0.00 0.00 0.00 0.00 0.00 0.00 0.00 0.00 0.00 0.00 0.00 0.00 0.00 0.00 0.00 0.00
0.07 0.07 0.06 0.04 0.04 0.02 0.02 0.02 0.01 0.00 0.00 0.00 0.00 0.00 0.00 0.00 0.00 0.00 0.00 0.00 0.00 0.00 0.00 0.00 0.00 0.00 0.00 0.00 0.00 0.00 0.00 0.00 0.00 0.00 0.00 0.00 0.00 0.00 0.00 0.00 0.00 0.00 0.00
0.03 0.01 0.02 0.02 0.02 0.01 0.01 0.00 0.00 0.00 0.00 0.00 0.00 0.00 0.00 0.00 0.00 0.00 0.00 0.00 0.00 0.00 0.00 0.00 0.00 0.00 0.00 0.00 0.00 0.00 0.00 0.00 0.00 0.00 0.00 0.00 0.00 0.00 0.00 0.00 0.00 0.00 0.00
0.00 0.00 0.01 0.00 0.00 0.00 0.00 0.00 0.00 0.00 0.00 0.00 0.00 0.00 0.00 0.00 0.00 0.00 0.00 0.00 0.00 0.00 0.00 0.00 0.00 0.00 0.00 0.00 0.00 0.00 0.00 0.00 0.00 0.00 0.00 0.00 0.00 0.00 0.00 0.00 0.00 0.00 0.00
MSLP
1019.77 1020.35 1020.42 1020.97 1021.34 1021.53 1021.81 1022.44 1023.01 1023.19 1023.53 1024.04 1024.52 1024.86 1025.17 1025.36 1025.63 1025.71 1025.69 1025.63 1026.03 1026.19 1026.36 1026.78 1026.99 1027.28 1027.59 1027.79 1027.88 1028.03 1028.16 1028.15 1028.14 1028.33 1028.65 1029.04 1029.15 1029.40 1029.40 1029.46 1029.58 1029.52 1029.41
1019.66 1020.21 1020.44 1020.99 1021.49 1021.55 1022.13 1022.48 1022.73 1023.09 1023.69 1024.19 1024.85 1025.11 1025.26 1025.55 1025.79 1025.79 1025.88 1025.96 1026.12 1026.29 1026.35 1026.48 1026.97 1027.22 1027.56 1027.85 1027.98 1028.07 1028.22 1028.29 1028.40 1028.51 1028.66 1029.06 1029.33 1029.58 1029.64 1029.68 1029.75 1029.70 1029.52
1019.63 1020.01 1020.55 1021.00 1021.43 1021.70 1022.21 1022.38 1023.25 1023.35 1024.02 1024.55 1025.07 1025.27 1025.41 1025.65 1025.77 1025.86 1025.97 1026.00 1026.15 1026.20 1026.38 1026.54 1026.79 1027.01 1027.37 1027.75 1028.06 1028.19 1028.33 1028.48 1028.49 1028.59 1028.72 1028.93 1029.31 1029.46 1029.61 1029.82 1029.76 1029.65 1029.49
1019.42 1019.97 1020.60 1021.10 1021.38 1021.54 1022.23 1022.52 1023.21 1023.73 1024.13 1024.44 1025.06 1025.41 1025.39 1025.58 1025.60 1025.60 1025.83 1026.03 1026.16 1026.18 1026.26 1026.42 1026.61 1026.85 1027.08 1027.41 1027.62 1027.94 1028.13 1028.42 1028.53 1028.68 1028.79 1028.94 1029.05 1029.30 1029.52 1029.78 1029.75 1029.62 1029.48
1019.25 1019.74 1020.38 1021.24 1020.81 1021.57 1022.28 1022.72 1023.32 1023.44 1024.07 1024.48 1024.91 1025.22 1025.29 1025.46 1025.38 1025.43 1025.76 1025.84 1025.96 1025.99 1026.18 1026.32 1026.47 1026.71 1026.99 1027.24 1027.40 1027.68 1027.96 1028.08 1028.44 1028.63 1028.69 1028.80 1029.01 1029.30 1029.52 1029.61 1029.58 1029.48 1029.39
1019.15 1019.85 1020.42 1020.87 1020.43 1021.62 1022.16 1022.66 1023.00 1023.33 1023.76 1024.43 1024.84 1025.01 1025.21 1025.28 1025.37 1025.52 1025.57 1025.61 1025.61 1025.74 1025.99 1026.26 1026.43 1026.65 1026.83 1027.02 1027.10 1027.30 1027.51 1027.70 1028.04 1028.25 1028.56 1028.66 1028.91 1029.18 1029.27 1029.32 1029.34 1029.26 1029.19
1019.09 1019.78 1019.99 1020.23 1020.76 1021.19 1021.83 1022.16 1022.84 1023.32 1023.94 1024.16 1024.74 1025.25 1025.21 1025.18 1025.23 1025.38 1025.63 1025.74 1025.76 1025.82 1026.02 1026.09 1026.21 1026.45 1026.72 1026.88 1026.97 1027.05 1027.09 1027.29 1027.54 1027.83 1028.22 1028.52 1028.76 1029.01 1029.11 1029.12 1029.11 1029.11 1029.08
1018.61 1019.57 1019.75 1020.07 1020.64 1021.22 1021.45 1022.13 1022.50 1023.24 1023.58 1023.89 1024.53 1025.31 1025.32 1025.21 1024.96 1024.86 1025.11 1025.44 1025.57 1025.75 1025.85 1026.06 1026.38 1026.52 1026.58 1026.62 1026.72 1026.75 1026.80 1026.83 1026.96 1027.25 1027.62 1028.04 1028.46 1028.77 1028.90 1028.98 1028.97 1029.00 1029.03
1018.68 1018.97 1019.38 1019.82 1020.12 1020.49 1021.28 1021.70 1022.28 1022.60 1023.25 1023.83 1023.84 1024.31 1025.25 1025.22 1024.96 1024.59 1024.63 1024.92 1025.20 1025.50 1025.49 1025.83 1026.01 1026.11 1026.27 1026.47 1026.38 1026.36 1026.61 1026.60 1026.63 1026.75 1026.99 1027.33 1027.96 1028.26 1028.52 1028.65 1028.76 1028.74 1028.74
1018.29 1018.40 1019.08 1019.66 1020.06 1020.41 1020.95 1021.25 1021.58 1022.17 1022.72 1023.44 1024.08 1023.89 1024.02 1024.20 1024.59 1024.89 1024.55 1024.43 1024.65 1025.02 1025.09 1025.05 1025.38 1025.49 1025.57 1025.95 1026.04 1026.14 1026.20 1026.27 1026.26 1026.36 1026.35 1026.61 1027.11 1027.48 1027.64 1027.77 1028.00 1028.11 1028.11
1017.95 1018.23 1018.65 1019.08 1019.58 1019.82 1020.12 1020.49 1021.18 1021.81 1022.01 1022.44 1022.86 1023.28 1023.72 1023.94 1024.13 1024.28 1024.52 1024.46 1024.51 1024.35 1024.44 1024.53 1024.55 1024.82 1024.93 1025.25 1025.48 1025.72 1025.92 1026.02 1025.94 1026.04 1026.01 1026.06 1026.35 1026.75 1027.02 1027.12 1027.18 1027.49 1027.57
1017.57 1017.79 1018.03 1018.48 1019.00 1019.41 1019.72 1020.12 1020.57 1021.05 1021.50 1021.70 1021.91 1022.34 1022.68 1022.92 1023.27 1023.60 1023.97 1023.84 1024.14 1024.26 1024.11 1024.21 1024.33 1024.37 1024.44 1024.78 1025.10 1025.29 1025.49 1025.67 1025.76 1025.80 1025.88 1025.76 1025.87 1026.10 1026.32 1026.50 1026.52 1026.70 1026.82
1017.17 1017.31 1017.71 1018.24 1018.63 1018.80 1019.29 1019.53 1020.13 1020.45 1020.84 1021.43 1021.74 1021.97 1021.38 1021.95 1022.10 1022.56 1023.15 1023.51 1023.85 1023.95 1024.08 1023.95 1024.01 1024.13 1024.38 1024.62 1024.90 1024.89 1025.05 1025.15 1025.24 1025.21 1025.28 1025.33 1025.39 1025.35 1025.44 1025.55 1025.62 1025.62 1025.76
1017.08 1017.16 1017.48 1017.66 1017.95 1018.24 1018.50 1018.96 1019.33 1019.80 1020.13 1020.42 1020.32 1020.54 1021.11 1021.12 1021.62 1021.91 1022.41 1023.22 1023.69 1023.85 1024.13 1023.86 1023.89 1023.99 1024.03 1024.44 1024.53 1024.66 1024.74 1024.76 1024.82 1024.85 1024.87 1024.77 1024.75 1024.67 1024.69 1024.84 1024.90 1024.95 1024.87
1016.38 1016.71 1016.86 1017.21 1017.44 1017.70 1017.97 1018.23 1018.74 1018.97 1019.39 1019.75 1019.70 1020.30 1020.29 1020.85 1021.18 1021.46 1021.87 1022.13 1022.71 1023.42 1023.83 1023.74 1023.91 1023.86 1023.95 1024.11 1024.19 1024.27 1024.41 1024.50 1024.52 1024.63 1024.77 1024.78 1024.65 1024.51 1024.35 1024.32 1024.20 1024.18 1024.19
1015.81 1016.12 1016.37 1016.55 1016.72 1016.86 1017.21 1017.63 1017.98 1018.07 1018.36 1018.74 1019.03 1019.63 1019.95 1020.44 1020.84 1021.32 1021.79 1021.89 1022.31 1022.98 1023.60 1023.62 1023.87 1023.94 1023.83 1023.83 1023.78 1023.97 1024.04 1024.13 1024.19 1024.22 1024.31 1024.30 1024.21 1024.10 1024.04 1023.81 1023.59 1023.44 1023.47
1014.80 1015.10 1015.45 1015.82 1015.94 1015.99 1016.42 1016.88 1016.90 1017.03 1017.59 1018.22 1018.63 1018.99 1019.49 1019.93 1020.66 1021.08 1021.51 1022.01 1022.33 1022.78 1023.29 1023.64 1023.64 1023.79 1023.87 1023.83 1023.73 1023.68 1023.86 1024.07 1024.06 1024.01 1023.90 1023.63 1023.52 1023.48 1023.22 1023.06 1022.84 1022.60 1022.65
1013.27 1013.68 1013.92 1014.61 1015.24 1015.19 1015.66 1016.07 1016.27 1016.46 1017.00 1017.61 1017.99 1018.58 1019.12 1019.73 1020.34 1020.73 1021.26 1021.73 1022.44 1022.57 1023.10 1023.59 1023.73 1023.93 1024.01 1023.91 1024.16 1024.19 1023.75 1023.70 1023.83 1023.56 1023.39 1023.13 1022.90 1022.74 1022.59 1022.31 1022.09 1021.81 1021.49
1011.85 1012.33 1013.08 1013.74 1014.07 1014.24 1014.86 1015.15 1015.50 1015.98 1016.32 1017.00 1017.48 1018.13 1018.66 1019.23 1020.00 1020.79 1021.34 1021.73 1022.12 1022.61 1023.15 1023.59 1023.80 1024.03 1024.31 1024.32 1024.28 1024.01 1023.96 1023.59 1023.42 1023.14 1022.92 1022.58 1022.30 1021.96 1021.73 1021.26 1020.81 1020.59 1020.41
1011.18 1011.66 1012.23 1012.67 1013.22 1013.63 1014.15 1014.34 1015.04 1015.74 1016.31 1016.85 1017.44 1018.04 1018.56 1019.29 1019.85 1020.83 1021.43 1021.94 1022.33 1022.67 1023.12 1023.54 1023.81 1024.09 1024.16 1024.05 1024.02 1023.95 1023.69 1023.38 1023.17 1022.79 1022.36 1022.13 1021.53 1021.16 1020.93 1020.34 1019.98 1019.58 1019.06
1010.59 1011.03 1011.65 1012.22 1012.82 1013.43 1013.75 1013.97 1014.64 1015.64 1016.44 1017.22 1017.73 1018.27 1018.87 1019.47 1020.12 1020.67 1021.42 1022.13 1022.38 1022.80 1023.14 1023.59 1024.12 1024.32 1024.31 1024.31 1024.34 1024.18 1023.90 1023.40 1023.04 1022.36 1021.76 1021.64 1021.14 1020.96 1020.35 1019.82 1019.25 1018.65 1018.12
1010.07 1010.62 1011.14 1011.77 1012.31 1012.80 1013.54 1013.71 1014.50 1015.71 1016.60 1017.12 1017.96 1018.68 1019.41 1019.94 1020.70 1021.18 1021.75 1022.25 1022.58 1023.05 1023.57 1023.97 1024.31 1024.47 1024.52 1024.45 1024.34 1024.27 1023.89 1023.51 1022.78 1022.16 1022.09 1021.39 1021.31 1020.47 1019.87 1019.29 1018.47 1017.96 1017.46
1009.99 1010.65 1011.03 1011.62 1012.18 1012.84 1013.45 1014.22 1014.72 1015.83 1016.64 1017.35 1018.16 1019.12 1019.94 1020.80 1021.23 1021.75 1022.30 1022.63 1022.96 1023.17 1023.71 1024.10 1024.41 1024.64 1024.59 1024.31 1024.28 1023.94 1023.77 1023.62 1023.25 1022.53 1022.18 1020.37 1020.55 1019.68 1019.04 1018.35 1017.79 1017.23 1016.86
1009.83 1010.45 1011.18 1011.74 1012.41 1013.09 1013.82 1014.58 1015.17 1016.22 1017.09 1017.94 1018.72 1019.45 1020.32 1021.13 1021.55 1021.93 1022.39 1022.87 1023.31 1023.52 1023.86 1023.99 1024.24 1024.25 1024.22 1024.08 1024.11 1023.78 1023.56 1023.18 1022.48 1021.90 1021.67 1020.14 1019.82 1018.95 1018.18 1017.49 1017.00 1016.49 1016.13
1010.03 1010.82 1011.35 1011.82 1012.64 1013.74 1014.23 1014.59 1015.45 1016.56 1017.68 1018.72 1019.34 1019.97 1020.66 1021.28 1021.72 1022.02 1022.43 1022.93 1023.39 1023.77 1023.81 1023.94 1023.83 1023.68 1023.67 1023.65 1023.62 1023.54 1023.38 1023.11 1021.88 1021.31 1021.07 1020.28 1019.11 1018.54 1017.71 1016.70 1015.98 1015.55 1015.29
1010.17 1010.98 1011.71 1012.41 1013.22 1014.22 1014.81 1015.38 1016.07 1017.13 1018.28 1019.20 1020.15 1020.78 1021.27 1021.58 1021.87 1022.14 1022.46 1022.89 1023.32 1023.72 1023.80 1023.81 1023.77 1023.74 1023.78 1023.70 1023.55 1023.58 1023.46 1023.23 1022.77 1020.78 1020.20 1020.29 1019.24 1018.90 1017.09 1015.87 1015.63 1015.43 1015.11
Thickness
5607 5605 5608 5606 5605 5606 5604 5602 5597 5596 5595 5593 5592 5591 5592 5593 5592 5593 5593 5592 5589 5588 5587 5583 5581 5579 5576 5574 5574 5571 5569 5567 5566 5562 5557 5552 5549 5545 5543 5540 5537 5535 5533
5604 5602 5603 5600 5598 5599 5595 5595 5595 5593 5590 5588 5585 5586 5588 5589 5588 5590 5588 5586 5584 5583 5583 5583 5578 5576 5572 5569 5567 5566 5562 5560 5557 5554 5551 5546 5541 5536 5534 5531 5528 5526 5525
5600 5599 5596 5594 5592 5593 5590 5591 5586 5587 5583 5580 5579 5581 5584 5584 5585 5585 5584 5583 5581 5579 5577 5575 5574 5572 5569 5564 5561 5558 5555 5552 5550 5547 5544 5540 5535 5531 5527 5522 5520 5518 5517
5597 5594 5590 5587 5588 5589 5585 5585 5581 5579 5578 5579 5577 5577 5581 5582 5584 5584 5582 5580 5579 5577 5575 5572 5570 5567 5564 5560 5557 5553 5549 5544 5541 5538 5535 5532 5528 5523 5518 5513 5510 5509 5507
5592 5591 5586 5581 5586 5584 5579 5577 5575 5578 5576 5575 5574 5577 5579 5580 5582 5582 5580 5579 5577 5575 5572 5568 5564 5561 5557 5553 5551 5547 5542 5540 5535 5530 5527 5524 5520 5514 5510 5506 5504 5501 5499
5588 5585 5581 5580 5585 5578 5575 5574 5573 5575 5575 5572 5573 5576 5578 5579 5579 5578 5576 5575 5575 5572 5568 5564 5559 5555 5551 5548 5545 5541 5537 5533 5528 5524 5519 5516 5511 5506 5503 5500 5496 5493 5490
5583 5580 5580 5580 5577 5576 5573 5573 5572 5572 5570 5572 5571 5571 5574 5576 5575 5574 5571 5569 5567 5564 5561 5558 5555 5552 5546 5541 5538 5535 5532 5527 5523 5518 5511 5506 5502 5497 5494 5491 5488 5484 5481
5582 5576 5577 5576 5573 5571 5573 5570 5571 5570 5571 5571 5571 5566 5571 5572 5572 5573 5570 5565 5562 5558 5555 5552 5548 5546 5542 5538 5533 5528 5524 5522 5517 5511 5506 5498 5492 5487 5483 5479 5477 5473 5469
5577 5575 5574 5574 5575 5575 5570 5571 5570 5573 5572 5569 5571 5571 5563 5564 5564 5567 5566 5562 5558 5554 5551 5546 5543 5540 5537 5533 5529 5525 5518 5514 5509 5504 5498 5492 5484 5478 5473 5468 5464 5460 5457
5575 5575 5572 5571 5571 5572 5570 5572 5573 5572 5571 5568 5563 5566 5566 5566 5562 5564 5561 5561 5557 5552 5548 5545 5540 5537 5534 5528 5523 5518 5513 5508 5503 5496 5491 5486 5479 5472 5467 5462 5456 5450 5446
5575 5575 5574 5575 5573 5575 5576 5576 5573 5569 5571 5570 5568 5564 5561 5559 5557 5559 5559 5557 5551 5550 5544 5541 5539 5534 5529 5524 5519 5512 5505 5499 5494 5488 5482 5477 5471 5464 5457 5452 5447 5439 5434
5579 5580 5581 5581 5577 5578 5577 5574 5573 5572 5571 5571 5570 5566 5563 5560 5558 5554 5551 5550 5547 5542 5540 5535 5532 5529 5525 5517 5510 5504 5497 5491 5486 5479 5473 5467 5461 5454 5448 5441 5435 5428 5421
5582 5583 5581 5579 5578 5575 5574 5575 5572 5573 5570 5566 5563 5560 5561 5561 5559 5555 5548 5543 5539 5535 5531 5528 5524 5520 5514 5508 5501 5496 5490 5484 5478 5472 5466 5458 5451 5445 5439 5432 5424 5417 5409
5580 5580 5580 5580 5578 5575 5576 5576 5575 5571 5570 5568 5569 5565 5561 5561 5554 5551 5545 5536 5529 5526 5522 5522 5516 5511 5506 5498 5493 5487 5481 5475 5469 5463 5456 5449 5442 5436 5428 5418 5410 5402 5395
5582 5582 5581 5580 5577 5576 5577 5577 5573 5570 5568 5565 5566 5560 5560 5554 5549 5545 5540 5536 5531 5522 5517 5514 5507 5501 5496 5490 5484 5477 5471 5464 5457 5450 5442 5435 5428 5422 5415 5407 5399 5388 5378
5582 5580 5578 5578 5578 5578 5577 5574 5573 5573 5570 5567 5564 5557 5553 5548 5543 5537 5530 5528 5522 5515 5508 5504 5496 5489 5484 5478 5472 5466 5460 5454 5447 5440 5432 5424 5417 5409 5399 5393 5385 5376 5364
5585 5582 5579 5575 5577 5579 5577 5573 5576 5574 5569 5563 5558 5554 5548 5542 5534 5529 5523 5518 5512 5505 5498 5492 5487 5480 5473 5467 5462 5455 5447 5439 5432 5424 5417 5412 5404 5395 5387 5379 5371 5363 5350
5588 5587 5584 5580 5577 5578 5575 5572 5571 5571 5565 5558 5554 5547 5541 5534 5527 5521 5515 5508 5499 5495 5487 5479 5473 5465 5458 5453 5446 5439 5433 5425 5418 5410 5402 5397 5391 5382 5374 5366 5357 5347 5336
5590 5588 5583 5579 5576 5574 5571 5572 5571 5565 5561 5554 5549 5541 5535 5528 5520 5511 5504 5497 5489 5481 5473 5465 5458 5451 5442 5435 5430 5425 5417 5412 5403 5396 5389 5384 5376 5369 5359 5354 5346 5334 5322
5587 5589 5583 5579 5574 5572 5570 5568 5563 5557 5551 5545 5539 5532 5526 5518 5511 5499 5490 5482 5475 5468 5459 5451 5444 5436 5429 5423 5417 5411 5407 5398 5391 5382 5375 5368 5364 5358 5348 5340 5332 5321 5311
5589 5587 5580 5573 5569 5567 5565 5562 5557 5548 5539 5531 5526 5519 5513 5505 5497 5489 5478 5468 5462 5454 5446 5437 5426 5416 5410 5403 5397 5391 5387 5385 5379 5371 5367 5357 5352 5346 5338 5326 5313 5306 5297
5586 5581 5577 5572 5568 5564 5557 5555 5548 5537 5527 5521 5514 5505 5495 5488 5477 5470 5462 5454 5447 5436 5425 5415 5406 5398 5390 5384 5379 5372 5368 5364 5364 5356 5349 5346 5330 5330 5319 5312 5302 5294 5283
5577 5571 5567 5563 5558 5552 5546 5541 5535 5525 5516 5509 5500 5489 5479 5468 5460 5453 5444 5436 5428 5420 5409 5399 5388 5379 5372 5367 5360 5355 5347 5341 5335 5331 5322 5335 5316 5317 5308 5300 5286 5277 5265
5569 5564 5558 5553 5548 5540 5534 5527 5521 5509 5500 5491 5482 5473 5462 5452 5445 5437 5428 5419 5410 5401 5392 5382 5372 5364 5357 5349 5340 5335 5329 5326 5323 5313 5298 5309 5301 5301 5294 5285 5272 5259 5251
5559 5552 5547 5543 5536 5525 5520 5516 5508 5496 5484 5472 5464 5455 5446 5437 5429 5421 5413 5403 5392 5381 5372 5363 5357 5350 5341 5331 5322 5316 5308 5303 5308 5301 5282 5278 5283 5275 5274 5267 5257 5247 5240
5550 5543 5535 5528 5519 5510 5503 5497 5490 5477 5465 5455 5444 5435 5427 5420 5412 5404 5395 5386 5375 5365 5356 5348 5339 5331 5321 5311 5301 5291 5284 5277 5272 5288 5269 5261 5258 5239 5253 5253 5239 5228 5223